Regional Weather Roundup
Issued by NWS Newport/Morehead, NC

Current Version | Previous Version | Graphics & Text | Print | Product List | Glossary On
Versions: 1 2 3 4 5 6 7 8 9 10 11 12 13 14 15 16 17 18 19 20 21 22 23 24 25 26 27 28 29 30 31 32 33 34 35 36 37 38 39 40 41 42 43 44 45 46 47 48 49 50
000 ASUS42 KMHX 261013 RWRMHX WEATHER ROUNDUP FOR EASTERN NORTH CAROLINA NATIONAL WEATHER SERVICE NEWPORT/MOREHEAD CITY NC 500 AM EST SUN FEB 26 2017 NOTE: "FAIR" INDICATES FEW OR NO CLOUDS BELOW 12,000 FEET WITH NO SIGNIFICANT WEATHER AND/OR OBSTRUCTIONS TO VISIBILITY NCZ015>017-031-032-045>047-102-103-261100- NORTH COAST CITY SKY/WX TMP DP RH WIND PRES REMARKS EDENTON CLEAR 47 27 45 NW8 29.99R ELIZABETH CITY CLEAR 41 26 55 W9 29.96R KITTY HAWK NOT AVBL MANTEO CLEAR 49 31 50 N9 29.95R $$ NCZ045>047-081-094-103-104-261100- CENTRAL COAST CITY SKY/WX TMP DP RH WIND PRES REMARKS FRISCO CLEAR 54 32 43 NW9G21 29.94R $$ NCZ095-097-098-100-101-261100- SOUTHERN COAST CITY SKY/WX TMP DP RH WIND PRES REMARKS BEAUFORT CLEAR 51 30 44 N13 29.98R CEDAR ISLAND NOT AVBL JACKSONVILLE CLEAR 48 27 44 NW12 30.00R PINEY ISLAND SUNNY N/A N/A N/A NW17G26 29.97R WILMINGTON CLEAR 48 22 35 NW9 30.01R $$ NCZ011>013-027>030-043-044-078>080-089-090>093-098-261100- COASTAL PLAIN CITY SKY/WX TMP DP RH WIND PRES REMARKS AHOSKIE N/A 41 23 49 CALM 30.00R CLINTON CLEAR 45 23 42 N3 30.03R ELIZABETHTOWN CLEAR 46 18 33 NW3 30.03R GOLDSBORO CLEAR 46 18 32 NW10 30.00R GREENVILLE CLEAR 45 21 39 NW5 30.03R HAVELOCK CLEAR 51 26 37 N14 29.99R KENANSVILLE CLEAR 45 21 39 NW5 30.01R KINSTON CLEAR 45 21 37 NW8 30.02R NEW BERN CLEAR 48 21 34 NW9G21 30.00R RICHLANDS CLEAR 45 27 49 CALM 30.01R ROCKY MOUNT CLEAR 42 21 43 NW10 30.02R WASHINGTON CLEAR 43 22 43 NW5 30.00R WHITEVILLE CLEAR 47 26 43 CALM 30.03R $$ AMZ130-135-150-152-154-156-158-170-250-252-270-ANZ085-086-088-633-658-670-261100- MARINE OBSERVATIONS STATION/POSITION TIME TEMP WIND PRES WAVE SWELL AIR SEA DIR/SP/G HT/PER HT/PER (UTC) (F) (DEG/KT/KT) (MB) (FT/S) (FT/S) CHESAPEAKE LIGHT NOT AVBL 64 E VA BEACH 0950 48 51 340/ 21/ 25 1012.3 7/10 3/10 DUCK 0948 50 49 350/ 12/ 17 1013.4 2 E DUCK 1000 49 N/A 3/10 2/11 OREGON INLET 0942 52 61 300/ 12/ 18 1013.6 13E OREGON INLT NOT AVBL HATTERAS CG 0948 54 64 320/ 21/ 26 1013.6 DIAMOND BUOY 0950 58 73 330/ 19/ 25 1013.3 8/ 8 5/10 CAPE LOOKOUT 1000 54 340/ 16/ 21 1014.7 BEAUFORT LAB 0948 53 63 350/ 10/ 16 1014.0 30 SE NEW RVR IN 0908 59 350/ 17/ 25 1014.0 30 SE NEW RVR IN 0943 66 N/A 5/ 9 2/11 27 SE WRIGHTSVLE 0908 57 61 340/ 19/ 25 1013.8 5 SE WRIGHTSVLE 0908 55 58 330/ 16/ 23 1014.7 225 S CAPE HAT 0950 71 71 230/ 16/ 17 1012.9 6/10 5/10 41 SE CHARLESTON 0950 59 69 320/ 17/ 23 1015.9 6/ 6 3/ 9 $$

USA.gov is the U.S. government's official web portal to all federal, state and local government web resources and services.